{"data":{"norad_id":22490,"epoch":"2026-09-19T08:39:47.663712Z","epoch_age_seconds":110565,"freshness":"FRESH","line1":"1 22490U 93009B   26262.36096833  .00000310  00000+0  34023-4 0  9993","line2":"2 22490  24.9708 346.0942 0042117  54.9182 357.3069 14.46149921774766","mean_motion":14.46149921,"eccentricity":0.0042117,"inclination_deg":24.9708,"raan_deg":346.0942,"arg_perigee_deg":54.9182,"mean_anomaly_deg":357.3069,"bstar":3.4023e-5,"rev_number":77476,"period_min":99.574738351073,"perigee_km":708.27908024594,"apogee_km":768.22326437659,"semimajor_km":7116.3881723113,"source":"CELESTRAK","updated_at":"2026-09-20T09:00:33.882854Z"}}